Zurück zum Katalog

ORS 5 SENSORSAT

AktivMilitärVLEO
NORAD 42921·PAYLOAD·🇺🇸 United States

Gestartet Aug 26, 2017 von Cape Canaveral Space Force Station

Loading…

Nächste Überflüge (nächste 24 Stunden)

TLE

AktuellSource: Space-Track

Epoche: Sep 14, 2026, 21:09 UTC

1 42921U 17050A   26257.88175690  .00002381  00000-0  11711-3 0  9995
2 42921   0.0476 197.0812 0010383 320.8099 202.1537 15.01152128494521

Verfolge ORS 5 SENSORSAT in Echtzeit mit AllMySat

Download on the App Store